Mesa.AZweather.com - Mesa, AZ
   Red Mountain Frwy and University Dr., El 1518 ft.
      --- Thursday  March 12, 2020 ---
 
 High Temperature ..  72F at 12:22
 Low Temperature ...  61F at 04:08
 
 High Humidity .....  98% at 09:11
 Low Humidity ......  62% at 15:29
 
 High Barometer ....  29.98 at 00:04
 Low Barometer .....  29.73 at 22:18
 
 High Dew Point ....  65F at 09:31
 Low Dew Point .....  54F at 17:30
 
 Rainfall Total ....  0.06 in.
 
 High Wind Speed ...  ---
                     
 
 Time   Temp  Humi  Rain     Baro  DewPt  Wind
00:00,  63F, 92%, 0.00 in, 29.97, 60F, ---
00:30,  63F, 93%, 0.00 in, 29.96, 61F, ---
01:00,  63F, 93%, 0.00 in, 29.97, 61F, ---
01:30,  63F, 94%, 0.00 in, 29.98, 61F, ---
02:00,  63F, 94%, 0.00 in, 29.96, 61F, ---
02:30,  63F, 94%, 0.00 in, 29.96, 61F, ---
03:00,  63F, 94%, 0.00 in, 29.95, 61F, ---
03:30,  62F, 94%, 0.00 in, 29.94, 61F, ---
04:00,  62F, 94%, 0.00 in, 29.93, 61F, ---
04:30,  61F, 94%, 0.00 in, 29.91, 59F, ---
05:00,  61F, 94%, 0.00 in, 29.91, 59F, ---
05:30,  62F, 95%, 0.00 in, 29.90, 61F, ---
06:00,  62F, 95%, 0.00 in, 29.91, 61F, ---
06:30,  62F, 95%, 0.01 in, 29.91, 61F, ---
07:00,  61F, 95%, 0.01 in, 29.90, 59F, ---
07:30,  62F, 95%, 0.01 in, 29.91, 61F, ---
08:00,  63F, 96%, 0.01 in, 29.91, 61F, ---
08:30,  63F, 96%, 0.01 in, 29.92, 61F, ---
09:00,  64F, 96%, 0.01 in, 29.94, 63F, ---
09:30,  65F, 97%, 0.01 in, 29.94, 64F, ---
10:00,  67F, 94%, 0.01 in, 29.93, 64F, ---
10:30,  68F, 84%, 0.01 in, 29.93, 63F, ---
11:00,  68F, 78%, 0.01 in, 29.93, 61F, ---
11:30,  70F, 74%, 0.01 in, 29.90, 61F, ---
12:00,  71F, 72%, 0.01 in, 29.88, 62F, ---
12:30,  72F, 72%, 0.01 in, 29.85, 62F, ---
13:00,  71F, 69%, 0.01 in, 29.85, 61F, ---
13:30,  71F, 65%, 0.01 in, 29.85, 59F, ---
14:00,  71F, 66%, 0.01 in, 29.84, 60F, ---
14:30,  70F, 66%, 0.01 in, 29.84, 58F, ---
15:00,  70F, 65%, 0.01 in, 29.84, 58F, ---
15:30,  69F, 62%, 0.01 in, 29.84, 56F, ---
16:00,  69F, 63%, 0.01 in, 29.79, 57F, ---
16:30,  68F, 66%, 0.01 in, 29.78, 56F, ---
17:00,  69F, 65%, 0.01 in, 29.78, 58F, ---
17:30,  68F, 65%, 0.01 in, 29.77, 56F, ---
18:00,  66F, 70%, 0.01 in, 29.79, 56F, ---
18:30,  65F, 74%, 0.01 in, 29.81, 56F, ---
19:00,  63F, 76%, 0.04 in, 29.79, 55F, ---
19:30,  62F, 81%, 0.04 in, 29.79, 57F, ---
20:00,  61F, 84%, 0.05 in, 29.79, 56F, ---
20:30,  61F, 87%, 0.05 in, 29.78, 57F, ---
21:00,  61F, 88%, 0.06 in, 29.77, 57F, ---
21:30,  61F, 89%, 0.06 in, 29.76, 58F, ---
22:00,  61F, 90%, 0.06 in, 29.75, 58F, ---
22:30,  61F, 91%, 0.06 in, 29.74, 58F, ---
23:00,  62F, 90%, 0.06 in, 29.76, 60F, ---
23:30,  62F, 87%, 0.06 in, 29.76, 59F, ---
23:59,  62F, 85%, 0.06 in, 29.78, 58F, ---